Location: *
(51.0333°S, 178.4667°E)
Time: 11:16:39
(UTC+00:00)

Cosmos 1500 - Pass Details

Date: 15 November 2019
Orbit: 499 x 521 km, 82.5° (Epoch: 10 December)

Event Time Altitude Azimuth Distance (km) Brightness Sun altitude
Exits shadow 09:25:11 23° 26° (NNE) 1,118 4.3 -13.5°
Maximum altitude 09:27:09 44° 86° (E) 717 3.6 -13.7°
Drops below altitude 10° 09:30:49 10° 158° (SSE) 1,751 6.3 -14.0°
Sets 09:33:01 0° 164° (SSE) 2,645 7.4 -14.2°
